Regional Weather Roundup
Issued by NWS

Home | Current Version | Previous Version | Graphics & Text | Print | Product List | Glossary Off
Versions: 1 2 3 4 5 6 7 8 9 10 11 12 13 14 15 16 17 18 19 20 21 22 23 24 25 26 27 28 29 30 31 32 33 34 35 36 37 38 39 40 41 42 43 44 45 46 47 48 49 50

000
ASUS43 KLSX 032207
RWRMO

WEATHER SUMMARY FOR MISSOURI
NATIONAL WEATHER SERVICE SPRINGFIELD MO
500 PM CDT SUN MAY 03 2015

NOTE: "FAIR" INDICATES FEW OR NO CLOUDS BELOW 12,000 FEET WITH NO
       SIGNIFICANT WEATHER AND/OR OBSTRUCTIONS TO VISIBILITY.
       CURRENT SKY AND/OR WEATHER CONDITIONS ARE NOT AVAILABLE FOR
       CHILLICOTHE AND FARMINGTON.

MOZ001>031-035>038-043-044-053-054-032300-
...NORTHERN AND WESTERN MISSOURI...

CITY           SKY/WX    TMP DP  RH WIND       PRES   REMARKS
KANSAS CTY INT PTSUNNY   80  59  48 S16G31    29.81S
KANSAS C DTWN  PTSUNNY   83  57  41 S18G29    29.81F
LEE`S SUMMIT   PTSUNNY   80  59  48 S14G22    29.85F
ST JOSEPH      PTSUNNY   84  58  40 S20       29.79S
CHILLICOTHE      N/A     83  59  44 S16G24    29.82F
KIRKSVILLE     PTSUNNY   81  58  45 S17G30    29.86S

$$
MOZ066>068-077>081-088>096-101>105-032300-
...SOUTHWEST MISSOURI...

CITY           SKY/WX    TMP DP  RH WIND       PRES   REMARKS
SPRINGFIELD    PTSUNNY   78  56  46 S14       29.94F
JOPLIN         PTSUNNY   78  57  48 S15G28    29.92F

$$
MOZ032>034-039>042-045>050-055>058-069>072-032300-
...CENTRAL MISSOURI...

CITY           SKY/WX    TMP DP  RH WIND       PRES   REMARKS
COLUMBIA       CLOUDY    80  55  42 S15G22    29.89F
JEFFERSON CITY PTSUNNY   83  50  31 S13G21    29.88F
ROLLA          MOSUNNY   79  54  41 S13G26    29.93F
SEDALIA        PTSUNNY   83  58  42 SW15G21   29.89S
WHITEMAN AFB   PTSUNNY   79  58  48 SW16G31   29.86R
WARRENSBURG    PTSUNNY   79  55  44 S18       29.86R
OSAGE BEACH    MOSUNNY   84  52  32 S15G21    29.92S

$$
MOZ051-052-059>065-032300-
...EAST CENTRAL MISSOURI...

CITY           SKY/WX    TMP DP  RH WIND       PRES   REMARKS
ST LOUIS INTL  PTSUNNY   84  47  27 S17G23    29.94F
SPIRIT OF STL  PTSUNNY   81  47  30 SW8       29.92S
ST CHARLES     MOSUNNY   83  48  29 SW15G25   29.91F

$$
MOZ072>076-082>087-097>100-106>115-032300-
...SOUTH CENTRAL AND SOUTHEAST MISSOURI...

CITY           SKY/WX    TMP DP  RH WIND       PRES   REMARKS
CAPE GIRARDEAU SUNNY     81  45  28 SW13      30.00F
FARMINGTON     MOSUNNY   79  48  34 S15G22    30.03S
POPLAR BLUFF   SUNNY     81  49  32 SW13G26   29.99F
WEST PLAINS    MOSUNNY   78  52  40 S14G20    30.00F

$$


USA.gov is the U.S. government's official web portal to all federal, state and local government web resources and services.